Погода в Шулме

Россия / Вологодская область     59°12′16″N   37°32′40″E
темп.,
°C
ветер,
м/с
пор.,
м/с
влажн.,
%
обл.,
%
осадки,
мм/ч
давл.,
гПа
погр.,
м
21 июня, пн
пн2100:00+20зюз23665 0.0 101839
03:00+18з22760 0.0 101918
06:00+21зюз24740 0.0 1019132
09:00+27з23530 0.0 1019791
12:00+31з12391 0.0 10192139
15:00+32ююз24334 0.0 10182465
18:00+30ююв1241100 0.0 10171052
21:00+23ююв246515 0.0 101861
22 июня, вт
вт2200:00+21юз347932 0.1 101964
03:00+18зсз248392 0.3 102057
06:00+21юз248024 0.0 1020132
09:00+27ююз245796 0.0 1020654
12:00+30ююз3438100 0.0 10201473
15:00+31ю3434100 0.0 10191748
18:00+30ююв344173 0.0 1018968
21:00+24ю24658 0.0 101869
23 июня, ср
ср2300:00+21ю38745 0.0 1019144
03:00+20ююз22845 0.1 101927
06:00+22ююз2675100 0.1 1019162
09:00+27юз355384 0.1 1020502
12:00+32юз4636100 0.0 10191839
15:00+34юз462957 0.0 10182742
18:00+33зюз353213 0.0 10171655
21:00+26юз22565 0.0 101819
24 июня, чт
чт2400:00+23зюз246599 0.0 101878
03:00+20ююз2273100 0.0 101818
06:00+23юз247227 0.0 1018128
09:00+30зюз344651 0.0 1018682
12:00+34зюз35317 0.0 10172613
15:00+34зюз463175 0.0 10152908
18:00+32ю2441100 0.0 10141126
21:00+19сз71593100 4.4 1017416
25 июня, пт
пт2500:00+18ююв2297100 0.9 101638
03:00+18з249710 0.9 101694
06:00+19зсз259425 0.0 1016293
09:00+23зсз357166 0.0 1016881
12:00+25сз345770 0.0 10161067
15:00+28зсз34475 0.0 10151683
18:00+26сз44530 0.0 10151024
21:00+21ссв37784 0.0 1014218